Flag for Sweden Weather past 2 weeks in Karlstad, Sweden

Now
52 °F

Light rain. Low clouds.


Feels Like: 46 °F
Forecast: 49 / 53 °F
Wind: 17 mph from South

Location: Karlstad

Current Time: Oct 24, 2014 at 11:32:07 PM

Latest Report: Oct 24, 2014 at 10:50 PM


Visibility: N/A

Pressure: 29.89 "Hg

Humidity: 94%

Dew point: 50 °F

Location of KarlstadLocation

Historic Weather in Karlstad — Graph

°F

Karlstad temperature yesterday

Maximum temperature yesterday: 45 °F (at 7:50 PM)
Minimum temperature yesterday: 37 °F (at 12:20 AM)
Average temperature yesterday: 41 °F

Past Weeks' High & Low Weather Summary

 TemperatureHumidityPressure
High59 °F (Oct 19, 2:20 PM)100% (Oct 9, 11:20 PM)30.15 "Hg (Oct 9, 11:20 PM)
Low34 °F (Oct 16, 8:20 AM)67% (Oct 10, 4:50 PM)29.30 "Hg (Oct 20, 5:20 AM)
Average46 °F93%29.84 "Hg
* Reported Oct 9 10:20 PM — Oct 24 10:20 PM, Karlstad, Weather by CustomWeather, © 2014

Note: Actual official high and low records may vary slightly from our data, if they occured in-between our weather recording intervals... More about our weather records

Advertising

Karlstad weather history for previous 24 hours

 ConditionsComfort  
Time TempWeatherWind HumidityBarometerVisibility
10:20 PM
Oct 24
52 °FMostly cloudy.18 mph94%29.89 "HgN/A
9:50 PM52 °FFog.20 mph94%29.89 "Hg3 mi
9:20 PM52 °FDrizzle. Low clouds.20 mph94%29.89 "HgN/A
8:50 PM52 °FDrizzle. Low clouds.20 mph94%29.89 "HgN/A
8:20 PM52 °FPassing clouds.18 mph94%29.89 "HgN/A
7:50 PM52 °FPassing clouds.21 mph94%29.89 "HgN/A
7:20 PM52 °FRain. Passing clouds.17 mph94%29.89 "Hg6 mi
6:50 PM52 °FRain. Passing clouds.16 mph94%29.89 "Hg5 mi
6:20 PM50 °FRain. Partly sunny.16 mph100%29.89 "Hg4 mi
5:50 PM50 °FRain. Fog.15 mph100%29.92 "Hg4 mi
5:20 PM50 °FFog.15 mph100%29.92 "Hg4 mi
4:50 PM50 °FFog.17 mph100%29.92 "Hg4 mi
4:20 PM50 °FFog.17 mph100%29.92 "Hg4 mi
3:50 PM50 °FLow clouds.18 mph100%29.92 "HgN/A
3:20 PM50 °FLight rain. Low clouds.17 mph94%29.95 "HgN/A
2:50 PM50 °FRain. Low clouds.18 mph94%29.95 "Hg4 mi
2:20 PM50 °FLow clouds.16 mph94%29.95 "HgN/A
1:50 PM50 °FLight rain. Low clouds.17 mph94%29.95 "HgN/A
1:20 PM48 °FLight rain. Low clouds.14 mph100%29.98 "HgN/A
12:50 PM48 °FLight rain. Low clouds.16 mph100%29.98 "Hg6 mi
12:20 PM48 °FLight rain. Low clouds.17 mph100%29.98 "HgN/A
11:50 AM48 °FLight rain. Low clouds.15 mph100%29.98 "Hg6 mi
11:20 AM48 °FRain. Low clouds.18 mph100%29.98 "Hg4 mi
10:50 AM48 °FLight rain. Low clouds.18 mph94%29.98 "HgN/A
10:20 AM48 °FLow clouds.18 mph94%29.98 "HgN/A
9:50 AM48 °FPartly sunny.18 mph94%29.98 "HgN/A
9:20 AM48 °FFog.17 mph94%30.01 "Hg5 mi
8:50 AM48 °FPassing clouds.18 mph94%29.98 "HgN/A
8:20 AM48 °FFog.18 mph94%29.98 "Hg6 mi
7:50 AM46 °FPassing clouds.17 mph100%30.01 "Hg4 mi
7:20 AM46 °FPassing clouds.15 mph100%30.01 "Hg3 mi
6:50 AM46 °FPassing clouds.15 mph100%30.01 "Hg2 mi
6:20 AM46 °FPassing clouds.16 mph100%30.01 "Hg5 mi
5:50 AM46 °FDrizzle. Low clouds.20 mph100%30.01 "Hg2 mi
5:20 AM46 °FLow clouds.20 mph93%30.01 "HgN/A
4:50 AM46 °FLow clouds.17 mph93%30.01 "HgN/A
4:20 AM46 °FMostly cloudy.17 mph93%30.01 "HgN/A
3:50 AM46 °FLight rain. Mostly cloudy.15 mph93%30.01 "HgN/A
3:20 AM46 °FRain. Mostly cloudy.15 mph93%30.04 "Hg4 mi
2:50 AM46 °FRain. Overcast.15 mph93%30.04 "Hg6 mi
2:20 AM45 °FLight rain. Low clouds.16 mph100%30.04 "Hg4 mi
1:50 AM45 °FRain. Low clouds.16 mph100%30.04 "Hg4 mi
1:20 AM45 °FRain. Low clouds.14 mph100%30.04 "Hg3 mi
12:50 AM45 °FRain. Mostly cloudy.15 mph100%30.04 "Hg3 mi
12:20 AM45 °FLight rain. Mostly cloudy.15 mph100%30.07 "Hg3 mi
11:50 PM
Oct 23
45 °FRain. Low clouds.16 mph100%30.07 "Hg3 mi
11:20 PM45 °FLight rain. Low clouds.16 mph100%30.07 "Hg6 mi
Weather by CustomWeather, © 2014

See weather overviewHow to use our weather pages